Location: Saluda
(35.2377°N, 82.3468°W)
Time: 13:37:54
(UTC+00:00)

SR - Pass Details

Date: 13 October 2022
Orbit: 577 x 875 km, 66.7° (Epoch: 28 November)

Event Time Altitude Azimuth Distance (km) Brightness Sun altitude
Rises 23:57:05 0° 219° (SW) 3,414 ? -12.8°
Reaches altitude 10° 23:59:36 10° 224° (SW) 2,500 ? -13.4°
Maximum altitude 00:05:18 53° 300° (WNW) 1,064 ? -14.5°
Drops below altitude 10° 00:11:02 10° 17° (NNE) 2,511 ? -15.7°
Sets 00:13:34 0° 22° (NNE) 3,430 ? -16.2°
